{"data":{"norad_id":56699,"epoch":"2026-05-25T05:29:05.672832Z","epoch_age_seconds":48555,"freshness":"FRESH","line1":"1 56699U 23067M   26145.22853788  .00000434  00000+0  25868-4 0  9997","line2":"2 56699  43.0043 209.2049 0002062 266.4265  93.6350 15.26734901167286","mean_motion":15.26734901,"eccentricity":0.0002062,"inclination_deg":43.0043,"raan_deg":209.2049,"arg_perigee_deg":266.4265,"mean_anomaly_deg":93.635,"bstar":2.5868e-5,"rev_number":16728,"period_min":94.318928522353,"perigee_km":484.16549506552,"apogee_km":486.99609228363,"semimajor_km":6863.7177936746,"source":"CELESTRAK","updated_at":"2026-05-25T13:38:18.120929Z"}}